Location: Allard College (historical)
(37.4326°N, 88.6837°W)
Time: 14:21:15
(UTC+00:00)

Daily predictions for brighter satellites

Satellite Brightness Start Highest point End
(mag) Time Altitude Azimuth Time Altitude Azimuth Time Altitude Azimuth
STARLINK-60 3.0 12:03:24 17° NW 12:05:55 84° NE 12:09:16 10° SE
STARLINK 1038 3.8 12:02:17 11° WSW 12:06:08 53° NW 12:10:11 10° NE
Cosmos 1703 4.4 12:06:26 12° NW 12:09:00 22° W 12:12:03 10° SW
ADEOS Rocket 2.8 12:05:30 10° SSE 12:10:58 86° ENE 12:16:42 10° NNW
STARLINK 1046 3.9 12:07:09 10° WSW 12:11:10 48° NW 12:15:11 10° NE
ATLAS 3B R/B 2.8 12:04:44 10° NW 12:11:22 57° WSW 12:18:10 10° SSE
SMAP 3.3 12:08:12 10° NNE 12:12:52 77° ESE 12:17:31 10° S
COSMOS 2428 4.0 12:07:36 10° S 12:13:00 46° ESE 12:18:27 10° NE
STARLINK 1039 4.0 12:12:09 10° WSW 12:16:07 44° NW 12:20:06 10° NE
Nadezhda 3 Rocket 3.9 12:10:29 10° S 12:16:36 78° W 12:22:49 10° N
Cosmos 1821 Rocket 4.1 12:11:38 10° N 12:17:48 82° E 12:23:53 10° S
USA 215 3.4 12:13:39 10° SE 12:20:11 80° NE 12:26:43 10° NW
STARLINK 1045 4.1 12:17:11 10° WSW 12:21:06 40° NW 12:25:02 10° NE
Alouette 2 Rocket 3.5 12:19:00 10° SSW 12:23:39 55° W 12:27:17 10° N
Envisat 3.8 12:19:04 10° NNE 12:24:06 59° E 12:29:05 10° S
STARLINK 1050 4.3 12:22:25 10° WSW 12:26:15 36° NW 12:30:05 10° NNE
Cosmos 1452 Rocket 3.8 12:21:10 10° NNW 12:26:25 72° ENE 12:31:38 10° SSE
Cosmos 1340 Rocket 2.7 12:22:39 10° SSW 12:26:31 64° W 12:30:24 10° N
Cosmos 2084 Rocket 3.7 12:23:32 10° SSW 12:27:52 78° ESE 12:32:16 10° NE
CENTAUR R/B 3.9 12:23:05 10° NW 12:30:24 34° WSW 12:37:58 10° S
STARLINK 1055 4.4 12:27:27 10° W 12:31:13 33° NNW 12:35:00 10° NNE
Lacrosse 5 rocket 3.9 12:29:08 10° N 12:31:39 15° NNE 12:34:06 10° ENE
Meteor 2-1 Rocket 4.2 12:32:06 10° SSW 12:37:44 78° W 12:43:19 10° N
Cosmos 2278 Rocket 4.5 12:33:35 10° N 12:37:48 21° NE 12:41:58 10° ESE
Cosmos 2058 2.9 12:35:30 10° N 12:39:43 77° W 12:43:55 10° S
Cosmos-2242 3.3 12:37:12 10° S 12:41:33 76° E 12:45:57 10° N
Cosmos 2322 Rocket 3.6 12:38:11 10° W 12:41:46 17° NW 12:45:23 10° NNW
USA 32 4.0 23:27:34 10° S 23:32:46 76° E 23:38:00 10° N
Envisat 3.0 23:31:28 10° SSE 23:36:27 62° ENE 23:41:29 10° N
Cosmos 1953 Rocket 3.7 23:33:22 10° S 23:37:44 55° E 23:42:08 10° NNE
Shenzhou-11 Module 3.2 23:36:15 10° WNW 23:38:34 25° N 23:40:53 10° NE
ISS -1.4 23:37:35 10° WNW 23:39:51 17° NNW 23:42:08 10° NNE
H-2A R/B 3.7 23:37:41 10° S 23:41:27 55° W 23:45:17 10° NNW
CZ-4C R/B 4.2 23:34:07 10° NW 23:41:27 51° WSW 23:49:28 10° S
Cosmos 1758 Rocket 3.8 23:37:37 10° SSW 23:41:54 73° W 23:46:13 10° N
COSMO-SKYMED 1 2.7 23:41:12 10° NNE 23:45:28 53° E 23:49:41 10° S
Cosmos 2341 Rocket 4.2 23:40:01 10° S 23:46:23 81° W 23:52:46 10° N
YAOGAN 6 2.7 23:45:13 10° SSE 23:48:48 54° ENE 23:52:23 10° N
SL-16 R/B 2.4 23:45:56 10° N 23:51:25 49° ENE 23:56:52 10° SE
Meteor 2-10 Rocket 3.5 23:48:14 10° N 23:53:23 60° E 23:58:20 10° SSE
CZ-4 R/B 1.9 23:50:19 10° SE 23:54:03 37° ENE 23:57:53 10° N
